When you browse on this site, cookies collect data to enhance your experience and personalize the content and advertising you see.
Visit our Privacy Policy to learn more. By continuing to use the site, you agree to this use of cookies and data.
  • In Hungary
  • List of Countries
  • For 7 days
  • Water Temperature
  • Satellite Maps
  • Weather Map
  • News
  • Weather Widgets
  • user-avatar
    Login

    Hourly Weather Sunny Beach

    Today, 23 January, Wednesday

    Time Temperature Precipitation Wind Pressure Humidity
    00:00 +3°C° 0 mm 3 mps 731 mmHg 93%
    01:00 +3°C° 0 mm 3 mps 731 mmHg 93%
    02:00 +3°C° 0 mm 3 mps 730 mmHg 92%
    03:00 +4°C° 0.4 mm 3 mps 730 mmHg 90%
    04:00 +5°C° 0.4 mm 4 mps 729 mmHg 88%
    05:00 +6°C° 0.4 mm 5 mps 729 mmHg 87%
    06:00 +6°C° 0 mm 5 mps 728 mmHg 87%
    07:00 +6°C° 0 mm 5 mps 728 mmHg 87%
    08:00 +7°C° 0 mm 5 mps 728 mmHg 87%
    09:00 +8°C° 0 mm 6 mps 728 mmHg 83%
    10:00 +9°C° 0 mm 6 mps 728 mmHg 80%
    11:00 +10°C° 0 mm 7 mps 728 mmHg 77%
    12:00 +10°C° 0 mm 7 mps 728 mmHg 75%
    13:00 +11°C° 0 mm 7 mps 727 mmHg 73%
    14:00 +11°C° 0 mm 7 mps 727 mmHg 71%
    15:00 +10°C° 0.1 mm 7 mps 727 mmHg 74%
    16:00 +10°C° 0.1 mm 7 mps 727 mmHg 78%
    17:00 +9°C° 0.1 mm 6 mps 727 mmHg 81%
    18:00 +9°C° 0 mm 6 mps 727 mmHg 82%
    19:00 +8°C° 0 mm 6 mps 727 mmHg 84%
    20:00 +8°C° 0 mm 5 mps 726 mmHg 85%
    21:00 +8°C° 0.1 mm 6 mps 726 mmHg 84%
    22:00 +8°C° 0.1 mm 6 mps 726 mmHg 84%
    23:00 +8°C° 0.1 mm 6 mps 726 mmHg 84%

    Tomorrow, 24 January, Thursday

    Time Temperature Precipitation Wind Pressure Humidity
    00:00 +8°C° 0.1 mm 5 mps 726 mmHg 85%
    01:00 +7°C° 0.1 mm 5 mps 725 mmHg 86%
    02:00 +7°C° 0.1 mm 4 mps 725 mmHg 87%
    03:00 +7°C° 0 mm 4 mps 724 mmHg 86%
    04:00 +7°C° 0 mm 4 mps 724 mmHg 86%
    05:00 +6°C° 0 mm 4 mps 723 mmHg 86%
    06:00 +6°C° 1 mm 4 mps 723 mmHg 87%
    07:00 +6°C° 1 mm 4 mps 722 mmHg 87%
    08:00 +6°C° 1 mm 5 mps 722 mmHg 88%
    09:00 +7°C° 1.1 mm 5 mps 722 mmHg 85%
    10:00 +7°C° 1.1 mm 5 mps 722 mmHg 82%
    11:00 +8°C° 1.1 mm 5 mps 722 mmHg 79%
    12:00 +8°C° 0 mm 5 mps 722 mmHg 78%
    13:00 +9°C° 0 mm 5 mps 721 mmHg 77%
    14:00 +9°C° 0 mm 5 mps 721 mmHg 76%
    15:00 +9°C° 0 mm 5 mps 721 mmHg 78%
    16:00 +8°C° 0 mm 4 mps 721 mmHg 81%
    17:00 +9°C° 0 mm 3 mps 721 mmHg 84%
    18:00 +8°C° 0 mm 3 mps 721 mmHg 86%
    19:00 +8°C° 0 mm 3 mps 721 mmHg 87%
    20:00 +7°C° 0 mm 3 mps 722 mmHg 89%
    21:00 +7°C° 0 mm 3 mps 722 mmHg 88%
    22:00 +6°C° 0 mm 4 mps 723 mmHg 87%
    23:00 +6°C° 0 mm 4 mps 723 mmHg 86%

    Day after tomorrow, 25 January, Friday

    Time Temperature Precipitation Wind Pressure Humidity
    00:00 +6°C° 0 mm 4 mps 723 mmHg 86%
    01:00 +7°C° 0 mm 4 mps 724 mmHg 85%
    02:00 +7°C° 0 mm 4 mps 724 mmHg 84%
    03:00 +6°C° 0 mm 4 mps 724 mmHg 85%
    04:00 +7°C° 0 mm 3 mps 724 mmHg 86%
    05:00 +7°C° 0 mm 3 mps 723 mmHg 87%
    06:00 +6°C° 0.1 mm 4 mps 723 mmHg 85%
    07:00 +6°C° 0.1 mm 4 mps 723 mmHg 82%
    08:00 +6°C° 0.1 mm 5 mps 723 mmHg 80%
    09:00 +7°C° 1.3 mm 5 mps 723 mmHg 80%
    10:00 +7°C° 1.3 mm 6 mps 723 mmHg 79%
    11:00 +8°C° 1.3 mm 6 mps 723 mmHg 79%
    12:00 +8°C° 0.1 mm 6 mps 723 mmHg 78%
    13:00 +8°C° 0.1 mm 5 mps 723 mmHg 78%
    14:00 +9°C° 0.1 mm 5 mps 723 mmHg 77%
    15:00 +8°C° 0 mm 4 mps 723 mmHg 79%
    16:00 +8°C° 0 mm 4 mps 722 mmHg 81%
    17:00 +8°C° 0 mm 4 mps 722 mmHg 83%
    18:00 +7°C° 0.5 mm 4 mps 722 mmHg 86%
    19:00 +7°C° 0.5 mm 4 mps 722 mmHg 89%
    20:00 +8°C° 0.5 mm 3 mps 721 mmHg 92%
    21:00 +7°C° 0.3 mm 4 mps 721 mmHg 89%
    22:00 +7°C° 0.3 mm 4 mps 721 mmHg 87%
    23:00 +7°C° 0.3 mm 5 mps 721 mmHg 84%

    26 January, Saturday

    Time Temperature Precipitation Wind Pressure Humidity
    00:00 +7°C° 0.1 mm 4 mps 721 mmHg 86%
    01:00 +7°C° 0.1 mm 4 mps 721 mmHg 87%
    02:00 +7°C° 0.1 mm 3 mps 721 mmHg 89%
    03:00 +7°C° 0 mm 3 mps 721 mmHg 90%
    04:00 +6°C° 0 mm 2 mps 721 mmHg 91%
    05:00 +6°C° 0 mm 2 mps 720 mmHg 91%
    06:00 +6°C° 0 mm 2 mps 721 mmHg 90%
    07:00 +7°C° 0 mm 1 mps 721 mmHg 89%
    08:00 +7°C° 0 mm 1 mps 721 mmHg 88%
    09:00 +8°C° 0.3 mm 1 mps 721 mmHg 85%
    10:00 +8°C° 0.3 mm 2 mps 721 mmHg 82%
    11:00 +9°C° 0.3 mm 2 mps 722 mmHg 79%
    12:00 +9°C° 0.2 mm 2 mps 722 mmHg 78%
    13:00 +10°C° 0.2 mm 3 mps 721 mmHg 76%
    14:00 +10°C° 0.2 mm 3 mps 721 mmHg 75%
    15:00 +9°C° 0.5 mm 3 mps 721 mmHg 78%
    16:00 +9°C° 0.5 mm 2 mps 722 mmHg 82%
    17:00 +8°C° 0.5 mm 2 mps 722 mmHg 86%
    18:00 +9°C° 0.3 mm 1 mps 722 mmHg 87%
    19:00 +8°C° 0.3 mm 1 mps 722 mmHg 89%
    20:00 +8°C° 0.3 mm 1 mps 723 mmHg 90%
    21:00 +8°C° 0.5 mm 1 mps 723 mmHg 90%
    22:00 +7°C° 0.5 mm 2 mps 723 mmHg 90%
    23:00 +7°C° 0.5 mm 2 mps 723 mmHg 90%

    27 January, Sunday

    Time Temperature Precipitation Wind Pressure Humidity
    00:00 +7°C° 1.3 mm 3 mps 723 mmHg 91%
    01:00 +5°C° 1.3 mm 3 mps 723 mmHg 91%
    02:00 +5°C° 1.3 mm 3 mps 723 mmHg 91%
    03:00 +5°C° 0.1 mm 3 mps 723 mmHg 90%
    04:00 +5°C° 0.1 mm 3 mps 723 mmHg 89%
    05:00 +5°C° 0.1 mm 3 mps 723 mmHg 88%
    06:00 +4°C° 0 mm 3 mps 723 mmHg 88%
    07:00 +4°C° 0 mm 3 mps 724 mmHg 89%
    08:00 +4°C° 0 mm 3 mps 724 mmHg 89%
    09:00 +4°C° 0 mm 3 mps 724 mmHg 85%
    10:00 +5°C° 0 mm 3 mps 725 mmHg 81%
    11:00 +6°C° 0 mm 4 mps 725 mmHg 77%
    12:00 +7°C° 0 mm 3 mps 725 mmHg 75%
    13:00 +8°C° 0 mm 3 mps 725 mmHg 72%
    14:00 +8°C° 0 mm 3 mps 724 mmHg 70%
    15:00 +7°C° 0 mm 2 mps 725 mmHg 73%
    16:00 +7°C° 0 mm 2 mps 725 mmHg 76%
    17:00 +7°C° 0 mm 1 mps 725 mmHg 79%
    18:00 +6°C° 0 mm 1 mps 725 mmHg 82%
    19:00 +6°C° 0 mm 1 mps 726 mmHg 84%
    20:00 +5°C° 0 mm 1 mps 726 mmHg 86%
    21:00 +5°C° 0 mm 1 mps 726 mmHg 86%
    22:00 +5°C° 0 mm 1 mps 727 mmHg 87%
    23:00 +4°C° 0 mm 1 mps 727 mmHg 87%

    28 January, Monday

    Time Temperature Precipitation Wind Pressure Humidity
    00:00 +4°C° 0 mm 1 mps 727 mmHg 87%
    01:00 +4°C° 0 mm 1 mps 728 mmHg 88%
    02:00 +4°C° 0 mm 1 mps 728 mmHg 88%
    03:00 +4°C° 0 mm 1 mps 728 mmHg 89%
    04:00 +4°C° 0 mm 1 mps 728 mmHg 90%
    05:00 +3°C° 0 mm 1 mps 729 mmHg 90%
    06:00 +3°C° 0 mm 1 mps 729 mmHg 91%
    07:00 +3°C° 0 mm 1 mps 729 mmHg 91%
    08:00 +3°C° 0 mm 1 mps 730 mmHg 91%
    09:00 +4°C° 0 mm 2 mps 730 mmHg 83%
    10:00 +6°C° 0 mm 2 mps 731 mmHg 75%
    11:00 +8°C° 0 mm 3 mps 732 mmHg 67%
    12:00 +9°C° 0 mm 3 mps 732 mmHg 66%
    13:00 +9°C° 0 mm 3 mps 732 mmHg 64%
    14:00 +10°C° 0 mm 3 mps 732 mmHg 63%
    15:00 +9°C° 0 mm 3 mps 732 mmHg 67%
    16:00 +9°C° 0 mm 2 mps 732 mmHg 72%
    17:00 +8°C° 0 mm 2 mps 732 mmHg 76%
    18:00 +7°C° 0 mm 2 mps 732 mmHg 79%
    19:00 +6°C° 0 mm 2 mps 733 mmHg 82%
    20:00 +6°C° 0 mm 2 mps 733 mmHg 84%
    21:00 +6°C° 0 mm 2 mps 733 mmHg 85%
    22:00 +6°C° 0 mm 2 mps 733 mmHg 86%
    23:00 +6°C° 0 mm 2 mps 734 mmHg 87%
    Show more